Wind_Speed
9 9 9 9 8 8 8 8 8 8 8 8 8 8 8 8 9 10 10 11 12 12 12 13 13 14 16 17 18 19 20 22 24 27 28 31 33 35 38 39 38 37 37 38 39 41 42 43 44 44 45 45 45 46 43 42 36 29 30 35 38 38 37 33 31 31 29 28 25 26 27 26 27 22 21 24 25 25 23 21 21 21 15 14 19 16 14 14
9 9 9 9 9 9 9 9 9 9 9 9 9 8 8 9 10 10 11 12 12 13 13 14 13 14 14 15 15 15 17 18 20 22 23 25 28 30 33 35 37 37 37 37 36 37 38 38 39 39 41 43 45 46 45 44 40 35 34 37 41 40 37 34 31 31 30 30 27 24 26 26 27 22 18 20 20 21 25 24 19 19 16 18 26 23 20 19
11 10 10 10 10 10 11 10 10 10 10 10 9 10 10 10 11 11 12 12 13 13 13 14 14 14 14 15 15 14 15 15 18 19 17 21 23 25 28 30 33 35 35 36 36 36 36 36 35 34 34 37 42 42 41 44 42 38 39 41 42 38 36 35 33 32 30 31 31 29 28 26 26 26 23 20 18 18 22 25 23 22 18 18 26 26 24 23
13 12 11 11 11 12 12 12 12 11 11 11 12 12 13 13 13 13 13 13 13 13 13 13 14 14 15 16 15 15 15 14 20 19 15 17 18 20 23 24 26 30 32 34 35 36 35 34 34 33 30 31 35 36 35 39 41 39 42 46 43 36 35 37 35 33 31 31 32 32 32 29 26 27 30 26 21 21 22 25 25 25 24 22 26 28 25 24
15 14 13 13 13 13 13 13 13 13 13 14 14 15 15 15 15 15 15 14 15 14 15 14 14 15 14 16 15 16 15 11 19 21 15 17 16 16 18 18 21 24 27 29 32 33 34 33 32 33 33 30 28 31 35 37 37 38 42 47 44 39 38 36 33 35 34 32 32 32 33 32 28 27 31 30 26 23 21 24 23 22 25 23 25 27 24 23
17 16 15 15 15 15 15 15 16 16 16 16 16 17 17 17 16 16 16 16 16 16 16 16 16 16 16 17 16 17 15 9 17 21 16 17 16 16 16 16 17 18 22 24 26 29 31 32 31 32 34 33 28 30 34 33 33 37 40 45 45 43 42 36 31 33 34 35 35 35 34 31 31 32 32 32 30 24 19 20 22 22 23 23 26 25 20 21
18 17 16 16 16 17 17 18 18 19 19 20 20 19 19 19 19 19 18 18 19 18 18 18 18 18 18 18 17 18 18 16 23 23 17 19 19 19 19 18 17 17 18 19 21 24 27 29 31 33 31 30 30 30 30 30 32 37 40 42 44 42 42 40 37 34 34 36 37 37 36 34 34 33 31 33 33 29 20 17 22 21 18 24 29 23 16 17
18 17 16 16 17 17 18 19 20 20 21 21 21 22 22 22 22 22 21 21 21 22 21 21 20 20 20 19 19 18 16 18 25 23 18 20 20 19 19 19 19 17 17 18 18 19 22 25 28 29 29 28 28 29 28 28 32 38 41 40 40 41 39 39 40 40 38 37 35 34 38 39 38 35 34 34 32 32 27 19 21 24 19 19 20 16 13 13
19 17 16 16 16 17 18 18 19 20 21 22 22 22 22 23 24 24 24 24 25 25 25 24 23 22 22 21 20 18 14 17 24 23 18 20 20 19 19 19 19 19 18 19 18 18 20 22 23 23 26 26 25 27 27 29 34 37 39 39 38 38 36 35 38 40 42 41 38 36 37 38 36 35 37 39 34 31 34 26 20 24 27 25 20 17 17 15
19 18 17 17 17 17 18 18 20 21 21 22 22 22 23 24 25 25 27 27 27 28 28 28 27 25 25 23 22 19 16 17 23 23 19 20 20 20 20 20 20 19 19 20 19 19 19 21 22 20 21 25 26 27 28 31 34 34 34 36 37 37 34 34 36 37 40 42 43 42 40 37 34 34 36 39 38 31 32 31 22 21 28 33 30 24 22 23
20 19 18 18 18 18 19 20 21 22 21 21 21 23 24 25 26 27 27 28 28 28 29 29 29 28 27 27 25 20 17 18 22 23 20 19 21 20 20 21 21 20 21 21 21 21 20 21 22 21 20 23 26 27 29 31 32 31 32 34 34 36 36 36 36 35 37 39 42 44 43 40 36 39 40 34 35 33 29 30 27 22 23 29 31 26 24 27
20 19 18 18 19 19 21 22 22 21 20 20 21 23 25 26 27 27 27 27 28 28 29 29 29 29 29 30 26 21 20 20 20 22 22 20 20 21 21 21 21 21 22 23 23 23 22 22 23 26 24 19 20 25 27 29 31 30 31 35 34 34 37 40 39 37 37 37 36 36 42 48 43 44 47 36 31 34 31 30 30 28 26 25 25 25 25 26
20 19 18 18 19 20 22 22 21 20 20 21 23 24 25 26 26 27 27 26 27 27 28 28 29 29 31 31 25 21 23 22 21 22 21 21 21 20 20 21 22 23 24 25 25 25 25 24 24 29 29 23 20 22 22 23 29 32 31 34 35 35 38 37 38 39 38 38 33 31 40 52 50 45 44 37 34 36 36 34 30 30 31 28 25 26 27 26
20 20 19 19 19 20 21 21 20 21 23 24 24 25 25 25 25 25 25 25 26 26 26 27 28 28 32 31 26 23 22 21 24 24 22 23 22 20 20 21 23 23 24 25 26 25 25 26 26 28 32 32 26 21 20 20 25 32 32 33 35 37 39 34 33 37 39 39 33 31 38 45 45 41 38 37 37 36 37 38 33 30 30 31 29 28 29 28
20 20 20 20 20 21 20 20 21 23 24 25 24 24 23 23 23 23 23 24 25 25 26 26 26 28 32 31 27 24 22 20 23 24 25 25 22 20 20 20 22 23 24 25 24 25 24 25 28 30 33 36 33 24 22 21 23 28 32 35 37 36 36 32 32 35 38 39 34 34 39 39 37 36 34 34 37 38 39 38 36 34 30 30 30 30 30 28
20 20 21 21 21 20 19 20 22 25 25 25 24 23 22 23 22 22 23 24 24 25 25 25 25 27 29 28 25 23 22 22 22 22 24 24 22 21 21 20 21 22 23 23 23 23 23 24 28 31 31 33 36 30 23 22 25 28 33 37 37 36 34 31 32 34 36 36 35 39 42 38 33 33 32 31 32 35 38 39 37 37 35 32 31 31 31 28
20 21 21 21 20 19 20 21 24 26 26 25 24 22 22 22 22 23 23 24 26 25 24 24 23 26 26 22 20 15 13 18 23 24 24 25 26 23 19 18 16 17 19 20 21 22 24 25 27 30 30 31 35 33 26 26 30 33 36 37 35 34 35 32 30 31 35 37 36 39 43 39 33 30 30 32 33 31 33 37 37 38 37 37 35 32 32 30
21 21 21 21 20 19 20 22 25 26 26 26 24 22 21 20 22 21 20 23 25 22 20 18 17 20 18 13 15 14 11 15 19 25 28 25 25 22 17 15 13 15 16 16 19 22 23 24 25 27 29 32 34 35 35 36 36 36 35 35 33 33 35 34 31 28 32 38 38 38 41 42 37 30 27 28 33 35 34 32 34 36 37 37 37 33 32 32
21 21 21 21 19 20 21 23 26 26 27 26 24 22 18 18 21 19 19 20 19 16 14 14 16 20 15 9 14 18 17 16 17 24 26 16 16 20 17 13 12 13 15 16 18 21 22 23 25 28 31 36 40 44 46 43 36 33 32 31 32 33 34 32 31 30 31 34 38 40 40 38 36 35 33 29 28 33 37 34 31 33 35 35 34 32 31 32
22 21 21 20 19 20 22 24 26 27 28 26 24 22 14 13 16 15 16 17 16 16 16 16 21 24 23 20 19 18 17 17 17 21 25 18 14 17 15 12 12 14 17 18 19 20 22 25 30 35 37 40 44 45 45 41 34 30 29 31 32 32 33 31 29 32 33 33 35 38 38 35 34 35 37 35 30 29 33 36 33 30 34 36 33 32 33 32
22 22 22 20 20 21 23 25 27 27 28 26 25 22 14 10 12 12 17 20 17 20 21 19 21 25 26 24 19 18 19 21 20 21 24 21 13 14 16 14 16 19 20 19 18 19 23 30 33 36 39 39 38 39 40 40 36 32 31 33 34 33 34 32 30 30 33 36 34 33 35 36 35 32 33 36 37 33 30 33 36 31 32 36 35 34 35 34
22 23 22 21 20 21 23 26 27 26 27 25 24 22 14 11 14 16 21 25 21 19 21 21 21 23 21 18 14 15 20 22 21 21 20 17 13 16 16 16 20 22 21 19 18 20 26 34 36 36 37 35 34 35 39 40 38 37 34 32 33 34 31 32 34 32 33 38 34 30 32 33 34 33 31 33 38 39 34 31 34 35 33 33 35 34 34 35
23 23 22 21 21 22 24 26 27 26 26 25 24 22 17 15 18 20 22 28 26 19 17 15 14 16 13 11 12 15 21 20 19 20 18 17 19 19 18 19 21 21 21 22 23 25 29 33 35 36 34 33 34 35 37 40 40 39 38 34 33 33 30 30 35 34 33 35 32 27 29 30 31 33 35 35 35 38 37 33 32 35 36 33 32 33 34 34
23 23 23 22 22 22 25 27 27 25 26 26 24 21 18 18 20 21 22 28 27 17 12 9 6 9 9 11 15 15 17 16 17 19 16 19 23 22 22 22 22 23 25 25 26 29 31 31 31 34 35 34 36 36 37 41 41 41 42 39 32 31 32 29 31 33 32 32 32 27 25 28 30 33 36 37 34 33 36 37 33 33 36 35 32 32 33 34
23 24 23 22 22 23 26 28 27 26 27 26 22 19 19 20 20 20 22 26 22 12 7 6 2 6 9 11 14 12 14 18 19 18 15 18 22 23 23 21 23 26 26 25 27 30 32 33 31 32 35 36 36 37 39 40 40 40 43 43 34 29 32 29 28 31 31 33 35 30 20 22 29 32 33 34 35 34 34 37 38 34 35 37 34 32 33 34
23 24 23 22 22 24 26 27 27 26 25 22 19 18 19 20 18 19 21 19 13 4 2 2 2 7 10 9 10 9 12 16 17 18 19 19 20 22 23 23 24 25 23 23 26 29 31 33 35 33 32 36 37 38 39 39 39 39 40 44 39 30 29 31 31 33 32 30 31 31 21 16 23 30 31 31 33 36 35 35 39 37 35 37 36 33 34 35
23 23 23 22 23 25 25 25 26 24 21 19 18 18 18 18 17 16 15 10 5 3 3 8 9 10 13 11 11 10 10 13 12 13 17 18 19 21 24 25 24 24 21 19 23 30 32 30 35 34 31 36 39 38 39 40 40 37 34 39 42 35 30 30 33 34 33 27 25 30 28 20 22 26 29 31 31 33 37 37 37 38 36 35 35 34 35 37
23 23 22 22 24 26 26 25 23 21 19 19 18 16 15 15 14 12 7 3 4 3 4 9 11 13 16 15 13 14 15 15 14 12 14 17 18 20 24 25 24 24 21 19 24 31 30 29 33 35 32 35 39 37 37 40 41 37 30 34 41 37 30 29 33 35 32 26 25 33 32 21 21 25 24 29 34 33 36 39 38 38 38 35 35 35 36 37
22 22 21 23 24 24 25 24 21 19 19 19 17 14 12 12 12 7 2 2 2 3 6 11 14 16 18 17 16 17 17 17 16 18 18 17 18 20 23 23 22 23 22 24 27 28 27 28 30 33 32 33 36 34 36 40 40 36 29 31 38 36 31 29 30 35 33 24 24 33 34 20 16 25 27 27 34 36 35 36 38 39 38 37 36 35 36 37
22 21 21 23 24 25 25 23 21 21 19 18 15 12 10 11 9 4 2 3 3 7 11 13 15 17 17 17 17 17 20 20 18 20 23 18 18 20 22 20 20 22 22 24 27 28 30 29 27 32 31 28 32 33 36 39 37 35 30 30 35 35 34 30 28 32 25 18 24 32 35 25 13 21 32 31 31 33 34 35 36 39 38 37 38 37 36 37
21 21 21 22 23 23 23 23 23 23 21 17 13 10 10 10 6 2 3 5 8 10 10 11 16 19 18 18 19 19 21 23 20 20 24 21 19 20 22 21 20 21 19 21 25 27 30 31 29 31 29 25 29 33 35 37 36 35 32 32 32 32 34 30 29 30 16 13 27 33 33 30 19 18 28 32 30 28 32 35 35 38 40 37 37 36 36 36
21 20 22 22 21 21 20 21 23 22 19 14 10 10 10 7 4 5 5 8 9 8 10 15 20 20 19 20 23 22 20 22 24 22 20 19 19 20 23 22 20 18 17 19 22 23 26 31 29 26 29 28 28 32 35 36 38 38 36 36 28 21 22 19 17 19 14 16 27 32 31 28 25 24 24 26 31 31 29 32 34 36 39 39 37 35 35 35
21 20 21 20 19 19 19 20 22 20 16 12 9 10 7 4 4 6 10 13 8 11 18 21 23 24 21 21 21 19 20 21 20 17 14 17 20 22 24 24 22 20 16 16 18 18 20 25 27 25 28 29 27 31 36 36 39 41 39 37 26 13 10 10 11 12 13 20 27 31 28 22 22 27 25 22 26 30 28 27 31 35 36 39 38 35 35 35
20 20 21 19 17 19 20 20 20 19 15 11 10 9 4 5 7 10 14 14 12 17 23 24 28 28 21 19 17 15 17 15 11 13 15 17 20 23 25 24 25 24 19 13 14 18 17 15 22 26 25 25 27 30 34 35 36 40 39 37 32 23 15 10 11 11 10 18 26 27 22 19 20 19 22 24 19 21 29 28 28 33 35 36 37 35 35 36
20 20 20 16 16 20 20 19 20 18 13 11 11 7 6 8 9 13 15 15 16 21 26 29 30 25 20 18 15 11 13 11 7 12 16 16 19 23 25 24 24 24 19 13 12 17 19 14 16 23 21 21 27 29 31 32 32 37 39 36 34 34 27 16 13 15 14 13 19 22 18 20 24 16 16 25 18 14 24 29 27 31 34 36 37 36 35 36
20 21 17 13 17 21 20 20 19 15 12 12 10 8 10 9 11 14 14 15 20 23 29 31 23 16 18 18 16 12 12 10 8 11 13 16 20 22 21 20 22 23 22 18 14 14 17 14 14 20 20 21 28 31 32 29 27 34 37 34 33 34 31 21 14 17 16 9 13 21 20 17 20 18 16 22 22 14 17 27 28 27 32 35 35 36 36 36
21 20 13 11 17 20 19 20 17 13 12 12 10 8 8 9 12 15 15 17 22 25 27 25 19 17 17 15 17 14 8 8 9 11 10 11 14 18 21 20 20 23 23 20 17 16 13 12 14 22 24 24 28 30 30 27 27 32 34 33 32 29 28 23 13 10 11 9 11 19 21 17 16 19 21 22 24 19 16 24 27 25 30 33 32 35 36 36
20 17 11 11 19 19 17 18 15 11 13 15 13 11 9 9 13 16 16 18 22 23 22 21 19 19 16 15 19 16 8 10 10 9 9 9 10 13 19 21 17 19 21 19 17 14 11 9 12 23 26 24 26 25 24 28 31 33 31 30 31 25 23 24 14 8 10 7 8 15 20 21 18 18 23 23 24 24 20 22 27 27 28 30 31 33 35 36
19 14 10 13 21 20 15 16 14 10 14 17 14 12 12 14 16 17 17 19 21 22 22 21 19 19 21 23 24 17 10 12 10 9 10 10 10 11 14 18 16 16 17 18 18 12 8 7 8 21 26 24 25 25 23 28 33 32 28 30 33 26 23 25 19 14 13 7 7 13 14 17 20 20 24 25 24 26 26 24 25 26 27 29 31 33 35 37
17 13 10 14 22 21 15 15 14 11 15 17 14 14 16 18 18 18 17 19 21 22 22 23 21 21 25 26 23 16 10 11 12 11 10 9 10 11 12 16 15 16 16 15 15 12 8 8 9 17 26 24 24 26 25 26 29 29 27 30 33 28 24 24 21 20 18 9 6 8 7 14 21 21 24 28 27 27 28 27 26 26 25 28 30 32 35 36
15 11 10 13 20 21 17 15 13 13 17 18 16 17 17 18 19 19 18 18 21 23 22 23 22 20 22 23 21 16 11 13 13 12 13 10 10 11 12 17 14 14 16 15 14 13 11 10 11 15 26 27 26 29 27 24 24 24 25 30 33 29 25 18 14 20 22 14 10 8 6 14 24 26 22 24 26 27 28 29 28 28 27 27 30 33 35 36
14 10 9 12 19 22 18 15 13 15 20 20 17 17 16 18 20 20 20 21 23 25 20 19 19 19 20 21 21 19 13 13 14 12 13 11 12 11 10 16 14 12 15 15 14 13 12 9 9 13 24 27 25 26 25 23 23 23 24 29 29 27 26 18 10 15 19 18 17 14 7 9 21 30 25 20 24 27 28 29 29 29 29 28 28 29 32 36
12 8 9 14 21 23 18 14 13 14 18 18 16 15 15 17 20 22 23 24 27 25 18 16 17 17 18 18 21 23 16 11 12 9 11 13 13 12 9 14 16 12 12 14 12 12 12 10 8 12 19 24 24 24 24 22 24 26 26 28 28 26 26 20 14 15 17 17 17 12 6 4 12 24 24 21 24 24 25 28 29 29 29 28 28 28 32 37
12 8 12 17 21 20 14 12 14 15 16 17 16 16 16 16 18 23 26 26 27 24 19 17 16 15 19 19 20 23 15 9 9 5 8 13 10 11 9 13 17 13 13 13 12 12 12 8 7 10 12 16 19 21 22 24 26 27 27 28 29 27 23 18 17 17 14 16 20 13 7 8 16 20 19 19 20 21 25 27 28 29 30 30 30 31 33 35
15 10 10 17 20 18 13 14 19 19 17 18 19 18 17 18 19 22 27 27 25 23 19 18 14 12 17 19 19 19 14 9 9 5 4 8 7 8 9 13 17 15 13 13 11 10 12 9 6 9 8 10 13 16 20 24 25 25 25 26 27 26 23 19 18 15 10 14 20 15 9 14 21 19 16 17 16 17 24 27 26 27 29 30 31 31 32 33
17 11 13 16 14 12 12 14 18 18 15 17 21 19 19 22 22 21 26 27 26 24 20 15 12 12 16 18 19 19 18 12 11 7 6 5 4 6 8 12 16 15 12 13 11 8 11 13 11 13 14 15 21 26 27 26 25 24 24 25 26 25 25 23 17 13 12 14 8 11 15 17 17 14 14 17 13 11 19 24 25 26 26 29 31 31 33 34
15 13 18 17 10 9 12 11 12 14 12 14 20 20 20 23 23 23 26 25 24 23 20 13 10 13 17 17 17 18 18 12 7 7 8 5 3 4 6 10 15 15 12 12 12 9 10 13 13 16 19 18 22 28 29 28 29 27 25 24 25 24 27 27 19 12 17 16 3 14 18 15 12 10 12 16 15 13 17 19 22 27 27 28 33 33 33 33
16 13 17 19 15 15 18 13 11 16 17 16 19 19 19 21 23 25 26 24 22 20 19 16 13 14 16 15 14 15 15 11 6 6 6 4 4 4 5 9 13 15 13 9 10 13 13 13 12 15 17 16 18 24 28 30 29 25 24 24 23 24 26 25 20 13 16 13 6 15 17 15 12 7 7 13 15 16 19 18 21 30 32 31 34 35 33 32
20 15 14 17 17 17 18 16 16 20 20 20 20 17 18 22 24 23 21 22 24 20 17 19 18 16 16 13 11 12 12 12 11 7 4 4 6 7 8 9 10 12 12 9 10 15 14 13 10 12 15 13 14 20 28 31 27 24 24 23 22 24 24 23 20 12 9 9 12 18 18 14 9 4 6 14 16 15 21 21 19 26 32 34 36 35 32 29
22 21 18 17 17 16 16 16 18 21 20 19 18 16 18 24 25 23 20 21 24 22 21 24 24 20 18 16 15 14 12 12 12 6 4 5 6 9 11 9 9 11 11 10 12 14 12 10 8 10 13 13 13 19 27 30 27 25 24 23 22 23 22 24 23 12 11 14 12 12 13 10 5 3 6 16 17 14 18 22 20 23 27 30 34 32 28 28
22 23 22 20 18 18 16 15 17 20 18 15 16 19 25 26 22 23 24 20 17 21 26 28 28 26 24 22 20 16 11 11 11 8 8 7 5 7 12 11 10 11 13 13 13 14 13 10 7 8 11 14 15 18 26 30 28 26 26 25 23 22 21 24 25 15 11 13 9 8 10 9 4 2 3 15 19 14 16 21 22 23 24 26 29 28 27 28
22 22 22 22 20 20 19 17 16 17 15 14 17 24 28 25 19 21 26 23 17 18 22 23 25 27 26 23 20 14 9 7 6 7 10 10 6 6 9 11 10 9 12 11 9 11 13 11 8 7 8 12 15 19 28 30 23 21 26 27 25 23 22 22 24 18 10 8 7 7 9 7 4 1 1 10 16 16 17 20 21 23 24 24 25 25 26 28
Wind_Direction
328 321 314 312 306 303 300 297 297 294 295 293 296 299 302 305 302 301 297 293 291 289 288 286 284 280 277 275 274 272 268 267 264 261 257 255 254 252 251 249 248 246 244 245 244 244 243 242 241 240 240 240 239 239 237 235 230 225 229 233 236 236 235 235 235 238 242 248 245 238 242 242 245 242 215 217 226 230 240 244 240 234 235 241 239 248 258 253
323 314 308 306 303 302 297 294 292 290 291 289 292 295 298 300 297 296 292 291 289 287 285 282 281 279 278 276 274 271 269 269 266 263 261 258 255 254 252 251 249 247 245 243 243 242 241 240 240 240 240 239 238 239 237 236 231 224 227 232 235 236 235 235 236 238 241 246 248 245 244 239 242 238 207 209 223 230 237 238 238 230 224 243 251 255 253 252
318 311 305 302 301 300 296 295 294 294 294 292 295 297 298 297 295 294 291 291 288 286 283 279 277 275 276 275 275 273 268 270 267 262 262 259 258 257 254 253 250 248 246 244 242 240 239 237 235 234 237 239 237 236 236 235 231 224 227 234 236 236 236 237 236 238 239 241 247 248 247 245 242 235 227 228 227 232 237 230 232 234 228 240 249 250 252 254
316 310 303 300 300 299 297 296 295 296 296 295 296 296 298 297 297 297 295 294 290 287 281 277 274 271 273 273 274 274 273 279 271 260 257 259 258 259 257 255 253 249 247 244 242 241 239 237 234 230 229 234 236 232 230 231 229 226 227 233 236 235 237 237 235 236 238 241 247 247 244 249 246 237 239 243 238 241 246 234 229 234 237 242 242 244 252 252
314 310 304 299 298 299 298 297 297 298 298 298 296 294 295 296 297 297 295 294 291 289 284 280 275 271 273 274 275 276 279 287 273 263 258 259 257 257 258 256 255 251 247 244 242 240 239 236 233 229 224 226 230 228 227 226 226 228 229 233 235 236 237 238 235 235 237 241 246 244 241 246 249 244 242 245 243 239 244 239 230 234 240 240 230 233 246 245
309 309 306 301 298 299 300 300 301 301 302 302 301 298 297 296 298 298 296 295 292 290 287 284 281 277 277 278 279 278 278 276 271 268 261 261 260 259 261 258 255 253 248 244 241 238 237 234 230 227 224 222 223 226 228 224 223 229 232 234 235 237 237 236 234 235 237 239 241 240 242 246 248 247 244 244 245 238 235 236 234 237 238 235 233 240 249 239
305 304 305 304 301 301 300 302 303 304 305 306 307 307 305 303 302 302 301 299 297 295 292 290 288 284 282 283 284 282 281 273 267 270 268 266 263 258 259 258 255 254 251 246 240 237 234 231 228 225 223 224 225 225 228 226 224 229 234 235 235 236 237 236 235 237 237 237 239 239 242 245 245 247 246 242 245 247 243 235 238 244 238 227 228 236 243 241
306 298 299 302 301 301 301 302 303 304 306 307 309 309 308 305 302 301 300 299 298 298 298 298 298 296 291 289 288 287 287 279 272 272 270 265 262 259 258 258 256 253 251 249 243 237 232 228 226 224 223 226 228 228 228 228 228 230 234 235 235 236 237 236 236 237 238 238 239 239 240 241 242 245 246 242 242 246 245 244 245 244 238 224 222 235 250 263
311 299 293 296 298 299 300 301 303 304 306 306 306 304 303 300 297 296 294 294 295 295 298 299 301 302 298 295 293 290 287 281 279 279 273 265 263 261 259 259 258 254 250 250 246 241 236 230 225 223 228 230 231 233 229 228 230 230 234 235 235 236 235 236 236 235 236 236 238 240 241 240 241 243 244 242 240 239 238 242 250 239 232 227 232 257 265 269
317 306 295 291 294 298 300 302 304 306 306 305 304 301 299 296 294 293 291 292 292 293 296 297 300 301 300 298 294 291 287 281 280 280 275 269 267 263 261 261 259 258 255 252 249 247 242 236 226 220 233 236 232 234 231 230 233 232 234 237 236 236 236 235 235 234 234 234 235 238 242 241 240 245 247 240 234 233 232 236 246 240 229 226 233 255 257 256
321 313 302 295 294 296 299 303 307 307 307 305 303 299 296 293 292 291 290 290 291 292 293 296 298 299 300 297 294 297 290 280 280 281 278 269 266 265 264 263 260 260 259 255 253 250 246 242 229 219 229 237 233 235 234 232 235 236 235 238 238 237 236 234 233 232 232 233 234 236 242 242 238 241 244 238 229 229 233 240 247 242 232 228 234 246 240 242
322 317 309 302 298 298 301 305 308 307 306 304 300 297 293 290 288 287 286 287 289 290 291 293 295 296 296 291 293 300 290 281 279 279 279 274 268 266 265 265 263 260 258 258 256 252 250 245 236 226 222 226 235 238 237 235 235 238 236 238 239 237 235 234 232 231 230 232 233 232 238 239 235 234 236 234 230 230 237 247 248 242 240 236 233 239 233 233
323 319 313 307 304 302 304 307 308 306 305 304 302 299 295 291 287 285 285 286 287 287 289 291 292 294 292 291 296 296 289 287 281 276 278 278 274 271 268 267 264 262 259 256 256 254 252 247 241 234 223 219 228 228 230 234 235 235 234 235 237 236 236 233 229 229 228 229 229 227 233 234 232 233 233 231 233 236 242 248 247 241 238 238 234 236 232 229
323 321 316 313 309 308 308 308 307 306 307 309 309 306 300 294 289 286 285 286 287 288 289 290 291 292 290 293 298 294 289 288 282 281 282 278 276 275 273 270 266 263 259 256 253 252 252 249 242 237 228 223 219 214 221 230 232 231 231 233 231 232 234 229 226 225 223 224 224 224 234 233 228 232 233 231 234 237 243 244 242 239 236 236 234 233 234 230
323 322 320 318 315 313 311 309 308 308 311 315 316 311 304 298 293 291 289 287 287 287 288 288 290 291 292 296 300 297 294 285 278 280 280 277 277 277 277 276 270 264 257 253 251 249 250 249 241 235 232 227 216 212 221 226 228 224 222 227 225 228 232 227 225 222 219 221 218 218 231 233 228 232 233 233 236 236 240 240 236 237 236 234 231 229 232 231
323 322 322 321 318 315 312 311 310 309 315 319 319 315 308 302 298 294 290 289 287 285 287 287 289 288 288 293 297 301 301 289 279 276 274 273 274 276 278 277 273 268 262 258 256 254 253 251 242 234 232 228 217 214 224 228 226 219 217 223 221 222 227 226 224 220 217 218 214 215 227 234 232 233 232 231 234 234 235 236 235 236 234 232 230 227 231 232
324 323 324 322 319 316 313 313 310 312 319 321 321 317 311 306 302 298 294 291 286 285 286 286 286 283 288 296 293 297 305 293 287 281 275 272 270 269 275 277 272 265 263 264 263 261 259 254 242 231 228 225 217 215 225 227 220 215 215 221 221 218 222 223 222 218 214 214 213 218 228 234 233 231 231 230 231 232 234 234 234 233 233 232 230 229 231 232
325 325 326 323 320 317 315 315 313 317 321 322 322 318 314 311 304 299 299 292 288 292 296 292 278 272 290 308 286 278 288 286 288 288 284 279 272 268 270 270 257 252 255 259 261 260 259 252 238 230 225 222 216 211 217 219 214 213 213 215 219 220 221 220 218 214 209 211 215 223 230 232 231 228 230 231 230 231 232 233 232 229 229 231 231 231 229 228
326 327 327 324 320 318 318 317 316 321 321 322 323 319 321 321 310 309 311 299 293 299 303 301 285 275 281 278 273 286 293 287 288 293 293 286 275 273 277 270 246 240 244 242 249 253 250 239 226 223 222 218 215 211 214 217 215 217 215 213 217 219 221 219 217 215 210 212 218 223 229 230 229 229 229 231 230 230 230 231 232 228 225 227 229 228 223 223
327 328 328 325 321 320 321 318 320 324 322 322 323 320 327 331 315 310 306 293 289 292 287 280 272 274 280 274 271 279 277 272 270 278 282 281 272 266 270 269 246 234 235 233 237 240 234 228 221 220 220 218 217 215 216 218 221 223 221 218 218 218 221 218 216 217 216 219 221 221 226 228 228 229 228 228 228 229 230 229 230 227 223 222 224 223 217 216
329 329 329 327 323 323 323 321 323 325 323 324 324 322 328 328 307 291 286 282 287 295 295 286 266 267 277 275 273 274 268 262 251 249 266 282 276 249 250 249 238 234 236 238 239 235 228 227 226 223 223 221 221 219 218 219 222 226 225 221 219 219 221 220 219 218 217 224 226 220 222 227 229 230 226 225 225 227 228 226 225 225 223 220 218 221 219 214
331 330 329 328 326 327 325 323 326 327 325 324 323 321 319 306 298 297 297 295 302 305 298 291 274 270 275 273 276 275 266 263 253 245 255 272 262 244 246 240 236 238 240 243 243 238 233 231 230 227 226 225 224 222 219 218 219 224 228 225 221 219 220 222 222 219 216 223 228 220 220 226 227 229 228 224 223 225 225 225 225 222 222 221 217 219 221 217
331 330 329 329 328 330 327 324 328 328 325 323 323 322 315 303 303 309 308 305 314 319 300 289 278 280 288 282 281 262 251 254 255 249 243 243 244 244 243 238 240 243 242 242 239 238 236 233 231 229 227 225 225 222 218 216 217 221 226 231 229 219 216 217 216 216 215 220 224 219 221 227 226 228 229 226 224 225 225 224 224 222 220 220 218 217 218 215
331 331 330 330 330 331 329 326 329 330 326 327 327 324 317 314 316 317 315 312 318 323 310 318 314 289 286 274 277 267 253 256 256 252 241 233 237 239 240 240 242 245 245 243 241 240 238 235 232 229 226 223 223 221 216 213 215 218 221 228 229 218 215 215 212 212 213 219 220 213 220 228 226 225 227 226 225 224 223 222 222 223 220 217 216 215 215 213
332 331 331 331 330 333 331 327 331 332 330 331 330 324 320 319 323 323 322 321 324 329 320 354 69 238 257 267 275 268 255 258 258 254 244 235 234 233 237 240 241 245 247 246 244 242 239 235 231 228 224 222 223 221 215 211 212 216 218 222 225 221 217 213 210 207 208 218 216 204 213 230 225 224 224 221 220 220 221 220 220 221 220 216 213 213 213 210
332 331 331 331 332 333 332 329 332 333 332 333 328 323 321 321 327 328 328 325 320 327 300 299 226 254 282 296 284 270 261 263 261 254 246 237 231 231 237 238 239 245 247 247 247 242 239 236 232 231 225 220 222 222 216 210 210 214 215 217 223 229 222 212 210 211 209 212 208 199 210 232 224 222 221 217 216 217 218 219 218 218 218 215 211 212 212 208
333 332 331 332 333 332 332 331 331 332 331 329 326 324 320 321 328 332 333 321 271 205 221 257 268 278 291 291 267 256 262 268 269 258 245 239 231 229 236 237 237 245 248 246 246 239 235 233 230 231 226 218 219 220 215 208 210 214 212 212 218 226 229 215 210 218 215 206 206 206 211 227 231 222 216 214 215 216 217 217 216 215 216 215 211 211 211 207
333 333 332 332 334 332 331 332 331 331 329 328 326 323 319 319 328 338 344 314 250 222 242 269 282 289 295 293 271 259 262 271 278 265 238 229 229 228 232 237 239 244 245 239 242 241 235 230 229 228 223 216 216 217 212 206 209 212 208 209 214 220 229 219 210 218 215 203 211 215 209 217 234 227 216 212 213 216 216 215 215 214 214 215 212 208 209 208
335 333 332 332 334 332 330 331 332 333 332 332 332 327 325 326 334 349 346 262 266 266 278 292 297 296 301 302 288 277 273 272 269 265 253 227 220 228 230 236 244 246 244 238 243 250 240 228 227 228 225 216 213 214 210 206 208 209 207 207 209 214 225 226 217 217 215 210 214 214 212 215 225 225 221 212 211 214 216 214 214 214 212 214 214 208 207 207
337 333 333 334 334 333 332 334 338 340 341 341 340 339 338 338 343 355 235 241 274 296 301 308 309 306 307 304 293 287 284 279 266 261 267 245 218 230 235 233 243 247 244 239 245 254 247 237 232 229 228 218 210 211 210 207 205 204 207 205 202 209 220 226 221 214 215 223 216 211 215 220 219 221 221 217 214 211 212 214 213 213 211 212 214 209 205 206
339 335 335 336 336 335 336 341 344 345 346 344 342 346 349 347 341 285 249 281 289 297 310 316 316 312 306 300 292 287 286 284 274 265 267 249 218 226 235 232 238 243 242 238 244 253 250 250 247 232 229 222 209 208 210 207 202 201 206 202 195 202 212 219 219 214 219 229 214 211 217 220 218 222 221 218 218 213 210 212 212 211 209 208 211 209 205 204
340 338 336 338 340 340 340 345 348 347 346 343 344 353 355 348 312 248 269 311 302 300 320 318 317 317 307 299 293 288 285 281 276 273 265 241 220 225 229 227 228 230 233 231 238 251 248 248 249 233 225 225 213 205 205 206 201 200 204 199 192 193 201 208 214 212 221 225 213 210 218 224 220 219 222 216 217 217 212 210 211 210 207 206 208 208 205 203
341 340 337 339 343 345 347 350 351 348 346 348 351 355 353 323 291 280 302 318 309 301 314 313 314 319 310 298 295 291 288 279 267 265 259 235 228 232 228 226 226 224 230 230 231 242 242 242 244 230 217 221 221 208 201 200 198 199 201 195 189 189 186 191 201 204 214 218 213 208 214 232 228 216 217 217 217 216 211 208 209 208 207 205 205 205 206 204
342 341 337 338 348 352 352 353 350 348 350 350 345 343 320 271 280 307 317 314 303 304 309 309 312 320 315 295 295 296 294 288 252 247 258 239 228 233 230 227 227 227 232 241 241 235 228 235 235 220 207 212 220 211 198 193 194 198 199 192 192 195 187 186 200 202 205 207 209 210 210 224 228 216 208 211 218 216 208 205 206 206 205 203 203 203 204 204
341 343 338 337 352 357 355 354 350 350 351 343 336 319 283 272 288 314 320 307 304 309 311 315 319 323 317 304 305 299 291 293 248 238 252 238 227 233 234 228 224 224 224 232 254 240 224 228 222 206 200 204 210 209 199 194 194 196 197 195 195 194 191 198 209 203 202 203 208 215 219 218 220 220 205 203 213 222 204 197 199 202 201 201 203 203 203 204
340 345 341 338 352 358 356 353 352 353 351 340 329 296 276 284 294 305 310 305 309 313 314 321 328 321 309 310 320 315 294 289 261 244 252 246 237 236 234 229 222 217 215 216 240 245 225 227 217 201 203 205 203 200 194 194 193 192 197 199 195 193 193 199 208 201 200 206 207 212 218 215 212 219 216 203 203 206 192 187 191 198 199 201 202 201 202 203
342 345 347 347 353 357 353 349 350 353 354 347 329 303 290 295 296 300 306 306 308 312 314 318 319 310 300 300 315 322 304 282 265 250 254 246 239 235 229 230 224 214 212 217 239 255 246 237 215 200 204 206 203 196 194 203 201 193 200 200 192 197 198 194 202 203 196 209 208 204 208 208 205 210 209 203 197 191 183 184 188 194 198 199 200 200 201 200
344 345 359 355 347 351 350 344 345 346 347 345 330 318 321 316 309 311 309 303 306 311 310 304 302 306 300 291 304 317 304 281 270 253 255 243 239 236 224 228 228 212 211 217 231 253 269 263 215 198 201 202 201 202 209 219 210 197 199 196 190 198 197 189 198 201 190 206 206 198 203 208 208 196 187 192 195 187 180 182 187 193 197 198 199 199 198 197
344 348 5 356 343 345 347 340 339 336 336 338 327 316 320 317 313 314 309 305 308 310 304 300 301 304 305 302 307 318 305 277 267 257 258 242 239 244 223 223 224 207 204 213 224 248 281 285 228 200 198 195 196 206 215 217 211 208 208 196 195 206 198 189 199 201 194 204 201 197 201 205 207 196 182 187 196 189 184 184 187 193 196 198 199 196 196 196
346 351 359 356 347 344 341 337 341 342 332 331 326 316 315 314 315 319 319 315 312 310 304 303 304 301 305 310 315 323 312 288 280 269 262 240 241 254 226 215 219 207 197 205 222 241 253 261 251 205 192 192 199 205 211 209 206 217 221 201 198 209 204 195 202 204 200 201 198 197 197 198 205 205 192 189 193 194 191 189 189 192 196 199 197 193 194 195
349 355 343 343 347 344 339 336 344 348 339 335 331 321 314 314 319 326 328 321 318 319 310 302 301 298 304 311 315 320 312 298 293 274 267 255 249 258 221 203 212 202 193 203 218 230 238 247 252 212 190 193 201 202 208 209 201 210 215 199 196 204 204 198 199 201 201 201 203 200 198 205 209 211 205 193 193 197 197 193 192 193 195 196 196 194 193 192
350 348 326 333 346 347 341 339 345 343 336 335 331 321 315 317 326 333 331 325 328 329 318 303 299 298 305 310 313 321 319 304 296 270 263 260 243 246 217 199 205 196 190 206 219 231 248 251 249 219 197 196 201 201 207 208 198 200 203 196 197 203 205 206 195 194 199 198 199 200 202 212 205 203 205 199 192 194 197 196 195 195 194 193 195 195 193 194
355 344 335 345 349 344 338 342 347 331 325 329 329 324 322 322 328 334 333 331 333 333 323 306 296 296 306 310 313 320 321 311 300 254 249 268 242 220 210 197 199 200 196 209 221 226 235 238 242 229 203 196 199 199 205 210 204 204 205 205 208 206 205 207 191 192 210 206 193 193 197 170 172 185 195 193 185 188 197 198 196 194 192 190 189 187 189 194
3 9 355 346 344 342 338 337 332 320 319 326 328 333 333 330 332 332 331 332 332 332 326 307 298 299 302 304 312 319 319 312 302 255 251 276 238 190 203 202 196 201 204 211 223 220 219 226 229 221 199 191 195 193 201 212 208 205 210 216 217 207 200 205 196 196 220 208 186 187 200 167 157 170 181 178 178 188 194 193 194 194 191 189 188 185 187 192
3 22 358 334 331 337 345 339 329 325 325 323 324 333 334 334 341 335 328 330 334 338 331 310 309 312 302 307 322 325 325 306 284 281 291 276 226 185 202 200 195 203 208 215 227 230 235 239 217 214 203 181 188 190 195 202 202 206 215 217 217 206 193 201 204 192 206 209 193 186 174 160 164 171 166 160 173 192 189 185 190 192 191 192 190 189 190 194
2 353 337 335 330 331 343 337 324 322 322 319 323 330 329 333 343 336 327 332 338 343 341 326 325 328 316 322 332 332 330 309 266 269 304 285 222 195 199 196 197 203 208 217 223 238 253 250 238 237 224 194 188 190 189 190 194 204 211 210 215 210 191 198 213 197 204 225 197 134 130 143 163 178 171 168 180 182 171 177 187 187 188 192 191 191 194 194
2 330 330 347 351 338 340 331 319 327 331 320 319 322 324 330 335 332 330 333 335 338 344 345 336 325 324 329 331 333 335 322 272 274 302 288 234 221 213 201 200 203 208 217 221 231 254 259 252 246 237 214 196 192 190 190 193 199 203 204 209 203 189 198 218 210 211 227 154 114 135 141 148 167 174 181 192 182 160 163 177 179 179 183 185 189 194 193
360 338 337 347 349 345 345 344 349 355 351 332 319 320 324 328 332 331 330 332 336 337 336 338 344 334 330 336 332 328 335 332 309 302 306 271 227 242 236 210 203 207 211 214 222 226 244 269 259 240 243 234 209 199 196 196 198 198 196 195 196 194 190 201 214 208 209 217 121 114 136 134 130 148 169 174 180 185 179 170 171 175 175 176 180 187 193 195
356 354 350 346 346 348 349 354 359 354 344 331 324 326 327 330 331 330 328 329 337 343 333 326 336 337 333 338 329 316 320 319 311 305 288 240 216 218 221 216 213 217 216 217 228 229 246 279 268 233 236 235 219 208 196 193 198 198 193 192 196 197 194 197 206 200 174 151 111 113 125 126 128 146 194 185 170 166 181 186 185 184 184 185 189 192 196 199
355 356 355 350 351 352 353 2 0 347 334 326 327 332 331 330 328 328 334 332 328 335 333 323 326 330 327 325 318 313 307 293 288 279 241 240 238 220 209 208 216 218 215 218 232 243 265 279 254 227 228 228 226 213 196 191 195 195 194 196 199 200 197 195 201 190 128 125 131 128 124 128 161 201 201 191 177 157 171 182 186 189 191 195 198 199 202 205
355 355 352 350 355 358 356 0 354 339 330 331 334 330 326 327 327 326 335 336 321 322 326 321 320 322 323 326 327 329 321 282 264 246 225 226 243 227 210 212 224 219 211 213 224 244 269 277 252 238 234 229 229 215 196 191 194 195 195 195 194 200 201 198 202 196 138 131 156 161 135 127 160 270 178 175 174 170 175 180 184 188 190 194 198 198 200 203
354 356 351 349 357 0 356 354 346 332 329 335 332 326 324 326 330 330 331 330 325 324 321 317 321 323 328 339 345 347 346 317 269 221 208 203 206 221 214 220 236 227 214 214 220 237 260 284 290 282 252 227 224 212 194 188 192 198 195 191 190 195 199 200 205 204 176 149 163 163 148 132 109 24 148 167 172 174 177 185 191 192 191 192 194 195 197 201
Height
3093 3092 3091 3090 3090 3089 3088 3088 3087 3086 3086 3085 3085 3085 3085 3085 3084 3084 3084 3083 3083 3083 3083 3082 3082 3082 3081 3081 3081 3081 3081 3082 3082 3082 3084 3085 3086 3087 3088 3090 3093 3095 3098 3099 3102 3105 3107 3110 3113 3116 3118 3121 3122 3125 3129 3132 3137 3139 3139 3135 3131 3131 3133 3136 3138 3139 3140 3140 3141 3142 3143 3144 3144 3145 3145 3148 3152 3152 3154 3155 3156 3156 3158 3156 3152 3155 3159 3160
3093 3092 3091 3090 3089 3088 3088 3087 3086 3086 3085 3085 3084 3084 3084 3083 3083 3083 3082 3082 3082 3082 3082 3081 3081 3080 3080 3079 3079 3080 3080 3079 3079 3079 3081 3081 3082 3083 3085 3086 3088 3091 3093 3096 3098 3100 3103 3106 3109 3112 3114 3116 3118 3120 3124 3127 3131 3133 3133 3129 3125 3126 3130 3134 3137 3138 3139 3139 3139 3140 3141 3142 3143 3144 3143 3144 3148 3151 3152 3153 3154 3154 3157 3155 3151 3155 3158 3158
3092 3091 3090 3089 3088 3088 3087 3086 3086 3085 3085 3084 3084 3083 3083 3082 3082 3082 3081 3081 3081 3081 3080 3080 3080 3079 3079 3078 3078 3078 3078 3078 3077 3077 3079 3078 3079 3080 3081 3083 3084 3087 3089 3091 3093 3096 3098 3101 3105 3108 3110 3111 3113 3116 3119 3122 3125 3127 3127 3123 3120 3124 3129 3132 3134 3136 3138 3138 3139 3139 3139 3140 3141 3143 3142 3142 3145 3147 3149 3151 3153 3153 3155 3155 3150 3152 3156 3157
3091 3090 3089 3088 3087 3087 3086 3085 3085 3084 3084 3083 3082 3082 3082 3081 3080 3080 3080 3080 3079 3079 3079 3079 3078 3078 3077 3076 3076 3076 3076 3076 3073 3075 3077 3077 3078 3078 3079 3080 3081 3083 3085 3087 3089 3092 3094 3097 3101 3103 3106 3107 3109 3112 3114 3116 3119 3121 3121 3116 3117 3124 3126 3128 3132 3134 3136 3137 3137 3137 3137 3138 3138 3141 3140 3141 3142 3144 3147 3148 3151 3152 3153 3156 3149 3147 3152 3154
3089 3088 3088 3087 3086 3085 3084 3084 3083 3083 3082 3082 3081 3081 3080 3079 3079 3078 3078 3078 3077 3077 3077 3077 3076 3076 3076 3075 3075 3074 3075 3075 3070 3072 3076 3075 3077 3077 3077 3078 3079 3080 3082 3083 3086 3088 3090 3094 3097 3099 3101 3102 3106 3108 3108 3111 3115 3116 3115 3114 3117 3122 3122 3125 3130 3131 3133 3135 3135 3135 3136 3136 3138 3139 3138 3138 3139 3140 3144 3145 3148 3150 3151 3154 3148 3143 3149 3152
3088 3087 3086 3085 3084 3084 3083 3082 3081 3081 3080 3080 3079 3079 3078 3077 3077 3076 3076 3076 3075 3075 3075 3075 3074 3074 3074 3073 3074 3073 3074 3073 3068 3070 3074 3074 3075 3075 3075 3076 3077 3078 3079 3080 3082 3084 3086 3090 3093 3094 3096 3098 3101 3103 3104 3109 3112 3112 3110 3111 3114 3117 3119 3123 3127 3128 3131 3132 3132 3133 3134 3136 3136 3136 3135 3136 3136 3138 3141 3143 3145 3147 3148 3151 3145 3142 3148 3149
3087 3086 3085 3084 3083 3082 3081 3080 3080 3079 3078 3078 3077 3076 3075 3074 3074 3073 3073 3073 3072 3072 3072 3072 3072 3072 3072 3072 3072 3071 3071 3070 3066 3068 3072 3072 3072 3073 3073 3074 3075 3076 3077 3078 3079 3081 3083 3086 3088 3091 3093 3095 3097 3099 3102 3107 3109 3107 3106 3108 3111 3114 3117 3120 3123 3125 3127 3128 3129 3131 3132 3133 3133 3133 3134 3134 3135 3137 3139 3141 3142 3144 3147 3147 3141 3141 3146 3146
3085 3084 3083 3082 3081 3080 3079 3079 3078 3077 3076 3075 3074 3073 3072 3071 3071 3070 3070 3070 3069 3069 3069 3069 3069 3069 3069 3069 3069 3069 3069 3067 3064 3067 3070 3070 3069 3071 3071 3072 3073 3074 3075 3076 3077 3079 3080 3082 3085 3088 3090 3091 3094 3097 3100 3104 3105 3103 3102 3105 3108 3111 3113 3116 3119 3121 3123 3124 3126 3128 3128 3128 3129 3132 3132 3132 3134 3136 3137 3139 3141 3142 3145 3145 3140 3139 3141 3145
3084 3083 3082 3081 3080 3079 3078 3077 3076 3075 3074 3074 3073 3072 3071 3070 3069 3069 3068 3068 3067 3066 3066 3066 3067 3066 3066 3066 3066 3066 3067 3065 3062 3064 3067 3067 3067 3068 3069 3069 3070 3071 3073 3073 3075 3076 3078 3080 3082 3086 3087 3089 3092 3094 3097 3099 3098 3098 3100 3102 3105 3107 3110 3113 3114 3116 3119 3121 3123 3124 3123 3124 3128 3130 3129 3129 3132 3134 3135 3137 3140 3141 3142 3143 3142 3138 3136 3142
3082 3081 3080 3079 3078 3077 3076 3076 3075 3074 3073 3072 3071 3070 3070 3069 3068 3067 3066 3066 3065 3064 3064 3063 3063 3063 3063 3063 3063 3064 3064 3063 3060 3060 3064 3064 3064 3065 3066 3067 3067 3069 3070 3071 3073 3074 3076 3078 3080 3083 3084 3086 3088 3090 3093 3094 3094 3096 3099 3100 3101 3104 3107 3109 3109 3112 3114 3117 3119 3119 3119 3122 3126 3126 3122 3124 3129 3132 3134 3135 3138 3139 3139 3140 3142 3141 3137 3139
3080 3079 3078 3077 3076 3076 3075 3074 3073 3072 3071 3070 3069 3068 3068 3067 3066 3065 3064 3063 3063 3062 3061 3060 3060 3059 3059 3059 3059 3061 3061 3060 3058 3057 3060 3061 3061 3062 3063 3064 3065 3066 3067 3068 3070 3071 3073 3075 3077 3079 3080 3081 3083 3085 3088 3090 3092 3094 3097 3097 3098 3100 3102 3103 3104 3108 3110 3111 3114 3117 3118 3119 3123 3120 3116 3121 3126 3129 3132 3134 3135 3136 3136 3137 3140 3141 3140 3140
3079 3077 3076 3075 3074 3074 3073 3072 3071 3070 3069 3068 3067 3066 3065 3064 3063 3062 3062 3061 3061 3060 3059 3059 3058 3057 3056 3055 3056 3058 3058 3057 3056 3055 3056 3057 3058 3059 3060 3061 3062 3063 3064 3065 3066 3068 3070 3072 3074 3075 3076 3078 3081 3083 3084 3086 3089 3091 3093 3093 3094 3096 3096 3096 3099 3103 3105 3106 3110 3115 3115 3112 3113 3111 3112 3120 3124 3127 3129 3130 3132 3133 3133 3134 3137 3138 3139 3141
3078 3076 3075 3074 3073 3072 3071 3070 3069 3067 3067 3066 3065 3064 3062 3061 3060 3059 3059 3059 3058 3057 3057 3056 3055 3055 3053 3051 3053 3055 3053 3053 3052 3052 3053 3053 3054 3055 3057 3058 3058 3059 3060 3061 3063 3065 3066 3068 3070 3071 3073 3075 3076 3079 3080 3083 3085 3086 3089 3089 3090 3091 3088 3089 3094 3098 3100 3102 3107 3112 3106 3100 3104 3106 3110 3119 3122 3124 3125 3126 3128 3130 3131 3132 3134 3135 3136 3140
3076 3075 3073 3072 3071 3070 3069 3068 3067 3065 3064 3063 3062 3061 3059 3058 3057 3056 3056 3055 3055 3054 3054 3053 3052 3052 3049 3047 3050 3051 3050 3050 3048 3048 3049 3049 3051 3052 3053 3054 3055 3056 3057 3058 3059 3061 3062 3064 3066 3067 3069 3070 3072 3074 3076 3078 3081 3083 3085 3084 3084 3083 3081 3086 3090 3092 3095 3097 3104 3106 3097 3093 3100 3104 3109 3116 3118 3121 3121 3122 3125 3125 3127 3129 3131 3133 3133 3136
3075 3073 3072 3071 3069 3068 3067 3066 3065 3063 3062 3061 3060 3058 3056 3055 3054 3053 3053 3052 3052 3051 3051 3050 3050 3048 3045 3044 3045 3045 3046 3046 3045 3045 3045 3045 3047 3048 3049 3050 3051 3052 3053 3054 3055 3057 3058 3060 3062 3063 3064 3067 3071 3072 3072 3073 3075 3078 3078 3076 3077 3077 3077 3083 3085 3087 3090 3094 3100 3100 3091 3090 3098 3103 3108 3112 3113 3116 3117 3118 3121 3122 3124 3125 3127 3129 3129 3132
3074 3072 3071 3069 3068 3066 3065 3064 3063 3061 3060 3059 3057 3055 3053 3052 3051 3051 3050 3049 3048 3048 3047 3047 3047 3045 3043 3042 3043 3043 3042 3041 3042 3042 3042 3042 3043 3044 3045 3046 3047 3048 3049 3050 3051 3053 3055 3056 3057 3059 3061 3065 3068 3069 3071 3071 3070 3071 3070 3069 3070 3073 3075 3078 3080 3082 3087 3091 3094 3091 3087 3089 3097 3100 3104 3108 3109 3111 3112 3113 3117 3118 3120 3121 3123 3125 3126 3129
3072 3071 3069 3068 3066 3065 3064 3062 3060 3059 3058 3056 3055 3053 3051 3049 3048 3047 3047 3045 3044 3045 3045 3045 3044 3042 3040 3040 3041 3042 3041 3040 3039 3039 3039 3039 3039 3041 3042 3042 3043 3044 3045 3047 3048 3049 3051 3052 3053 3055 3057 3060 3063 3067 3068 3065 3062 3063 3064 3064 3067 3070 3072 3074 3076 3079 3083 3086 3087 3087 3086 3089 3094 3097 3100 3103 3105 3107 3108 3109 3112 3114 3116 3117 3119 3121 3123 3125
3071 3069 3068 3066 3065 3063 3062 3060 3058 3057 3056 3054 3053 3051 3049 3047 3045 3045 3044 3042 3041 3041 3042 3042 3042 3040 3039 3038 3037 3038 3040 3039 3037 3035 3035 3035 3036 3037 3038 3039 3041 3041 3042 3043 3044 3046 3047 3048 3050 3052 3053 3054 3057 3060 3057 3052 3054 3057 3059 3061 3064 3067 3068 3069 3073 3076 3079 3081 3083 3084 3084 3085 3091 3094 3096 3098 3101 3103 3104 3105 3107 3109 3112 3112 3114 3117 3119 3121
3070 3068 3066 3064 3063 3061 3060 3058 3056 3055 3053 3052 3051 3049 3048 3045 3042 3042 3041 3039 3038 3039 3040 3040 3039 3038 3037 3037 3036 3036 3037 3038 3037 3033 3032 3033 3033 3033 3034 3036 3037 3038 3040 3041 3041 3042 3044 3045 3046 3046 3046 3046 3048 3049 3047 3048 3055 3058 3059 3061 3062 3064 3064 3066 3071 3074 3077 3078 3078 3080 3080 3083 3087 3090 3092 3095 3097 3098 3100 3102 3103 3104 3107 3109 3110 3113 3116 3117
3068 3066 3065 3063 3061 3060 3058 3056 3054 3053 3051 3050 3048 3047 3046 3045 3042 3041 3038 3037 3037 3037 3038 3039 3037 3034 3033 3034 3035 3035 3036 3037 3036 3035 3033 3032 3032 3032 3032 3033 3035 3036 3036 3037 3038 3039 3041 3041 3040 3039 3039 3040 3042 3045 3047 3053 3057 3058 3059 3059 3059 3061 3061 3064 3068 3071 3074 3074 3073 3075 3078 3080 3083 3085 3087 3091 3093 3094 3095 3098 3099 3100 3102 3105 3108 3110 3112 3114
3067 3065 3063 3061 3060 3058 3057 3054 3053 3051 3049 3047 3045 3044 3044 3043 3042 3041 3037 3035 3036 3035 3034 3035 3034 3031 3030 3031 3032 3033 3034 3033 3033 3034 3033 3031 3030 3031 3031 3032 3033 3033 3032 3034 3036 3038 3038 3036 3034 3035 3036 3039 3043 3046 3049 3053 3055 3056 3056 3055 3056 3057 3058 3062 3064 3067 3071 3070 3068 3072 3075 3077 3079 3081 3084 3086 3088 3090 3091 3093 3096 3097 3098 3100 3104 3106 3108 3112
3065 3063 3061 3060 3058 3057 3055 3052 3051 3049 3047 3045 3043 3042 3042 3041 3039 3037 3034 3031 3033 3034 3031 3029 3029 3027 3027 3027 3028 3031 3031 3030 3029 3031 3031 3030 3029 3030 3030 3031 3031 3031 3032 3033 3033 3034 3033 3030 3030 3032 3035 3039 3042 3045 3047 3050 3052 3053 3052 3052 3052 3053 3056 3059 3061 3064 3066 3066 3065 3069 3071 3073 3076 3078 3080 3081 3082 3084 3088 3090 3092 3094 3095 3096 3100 3103 3105 3108
3064 3061 3060 3058 3057 3055 3053 3051 3049 3048 3045 3043 3041 3039 3038 3037 3035 3034 3032 3027 3027 3029 3027 3026 3025 3024 3025 3026 3026 3027 3027 3027 3027 3027 3028 3029 3029 3029 3029 3029 3029 3029 3030 3030 3030 3029 3028 3026 3028 3031 3034 3037 3038 3040 3043 3046 3048 3048 3048 3048 3047 3049 3052 3053 3055 3059 3062 3062 3063 3066 3069 3070 3073 3075 3075 3076 3078 3081 3084 3086 3088 3089 3091 3093 3097 3100 3102 3104
3062 3060 3058 3056 3055 3053 3051 3049 3047 3046 3043 3041 3039 3037 3036 3035 3033 3032 3030 3026 3024 3024 3023 3023 3024 3025 3025 3025 3024 3024 3024 3024 3024 3024 3026 3026 3027 3027 3026 3026 3027 3026 3025 3026 3026 3025 3023 3024 3026 3028 3030 3033 3034 3036 3038 3040 3041 3043 3044 3043 3044 3046 3048 3049 3053 3056 3059 3060 3061 3064 3067 3066 3067 3069 3069 3072 3075 3077 3079 3082 3084 3085 3087 3090 3094 3096 3098 3101
3061 3059 3057 3055 3053 3052 3049 3046 3045 3044 3041 3039 3037 3035 3034 3033 3032 3030 3028 3025 3023 3022 3022 3021 3024 3025 3025 3024 3023 3022 3022 3022 3021 3021 3022 3023 3024 3024 3024 3024 3024 3021 3022 3023 3023 3022 3021 3021 3023 3025 3026 3028 3030 3031 3032 3034 3037 3038 3038 3039 3042 3043 3045 3048 3051 3053 3055 3055 3055 3060 3062 3060 3062 3064 3064 3068 3070 3072 3075 3077 3079 3081 3082 3085 3090 3092 3095 3098
3060 3057 3055 3054 3052 3051 3048 3045 3043 3041 3039 3037 3036 3034 3033 3031 3030 3029 3027 3025 3023 3022 3022 3022 3023 3023 3022 3022 3021 3020 3020 3018 3018 3019 3019 3019 3020 3021 3021 3021 3020 3018 3019 3021 3020 3018 3017 3018 3019 3021 3023 3025 3026 3026 3027 3031 3033 3032 3033 3038 3041 3042 3043 3045 3047 3048 3047 3047 3050 3056 3058 3057 3058 3059 3060 3063 3065 3067 3070 3072 3074 3077 3078 3080 3085 3089 3092 3095
3058 3056 3054 3052 3051 3049 3047 3045 3042 3040 3038 3037 3035 3034 3032 3030 3030 3029 3028 3026 3023 3022 3023 3022 3022 3021 3020 3021 3019 3019 3018 3015 3015 3015 3016 3016 3017 3018 3017 3017 3017 3016 3017 3019 3017 3013 3012 3015 3016 3017 3019 3021 3021 3021 3023 3027 3028 3027 3031 3037 3039 3040 3041 3041 3044 3044 3042 3046 3050 3052 3055 3056 3054 3053 3055 3059 3061 3063 3065 3067 3070 3073 3075 3076 3081 3085 3087 3090
3057 3055 3053 3051 3050 3047 3045 3044 3042 3040 3038 3036 3034 3033 3031 3030 3029 3029 3029 3027 3022 3021 3022 3021 3020 3019 3018 3018 3016 3016 3015 3013 3013 3012 3012 3014 3014 3015 3014 3013 3014 3014 3016 3016 3011 3008 3010 3012 3012 3013 3015 3015 3016 3018 3020 3024 3024 3025 3031 3035 3037 3039 3039 3039 3041 3040 3040 3044 3046 3046 3051 3052 3049 3050 3052 3054 3056 3058 3059 3062 3065 3069 3072 3073 3076 3081 3084 3086
3056 3054 3052 3050 3048 3046 3044 3043 3041 3039 3037 3034 3032 3031 3030 3029 3028 3028 3030 3028 3022 3020 3021 3019 3018 3016 3015 3015 3013 3013 3011 3011 3012 3009 3008 3010 3011 3012 3011 3011 3012 3012 3013 3012 3008 3006 3008 3009 3010 3012 3012 3012 3014 3016 3019 3021 3022 3025 3030 3033 3036 3039 3038 3038 3038 3037 3039 3039 3037 3041 3045 3045 3045 3048 3049 3049 3050 3052 3055 3058 3062 3064 3068 3070 3072 3077 3080 3083
3056 3053 3052 3049 3047 3045 3043 3041 3039 3037 3035 3032 3031 3030 3029 3029 3028 3029 3029 3026 3021 3020 3020 3018 3017 3015 3013 3012 3010 3010 3009 3008 3008 3007 3005 3006 3008 3009 3008 3009 3010 3009 3009 3009 3007 3005 3005 3006 3008 3009 3009 3010 3013 3015 3016 3018 3021 3026 3028 3029 3034 3037 3038 3037 3035 3036 3037 3032 3031 3037 3041 3041 3042 3043 3044 3044 3044 3048 3052 3055 3057 3060 3065 3068 3068 3072 3077 3080
3055 3053 3051 3049 3047 3044 3041 3039 3037 3034 3033 3031 3031 3030 3029 3028 3028 3028 3027 3023 3020 3019 3018 3017 3016 3014 3012 3011 3009 3008 3007 3005 3004 3004 3002 3002 3004 3006 3006 3006 3006 3006 3006 3005 3004 3003 3003 3003 3003 3004 3006 3008 3011 3013 3014 3016 3020 3023 3024 3025 3029 3033 3035 3034 3032 3034 3031 3025 3027 3034 3039 3039 3038 3037 3038 3040 3042 3045 3048 3050 3053 3056 3060 3064 3066 3069 3073 3077
3054 3052 3050 3048 3046 3044 3042 3039 3037 3034 3033 3032 3031 3030 3029 3029 3028 3027 3024 3021 3020 3018 3017 3016 3015 3012 3011 3008 3006 3005 3004 3002 3001 3000 3000 3000 3001 3002 3003 3003 3004 3004 3003 3002 3001 3002 3001 3000 2999 3002 3003 3003 3006 3009 3010 3012 3016 3018 3018 3020 3021 3023 3027 3027 3027 3027 3024 3022 3026 3033 3036 3033 3031 3034 3036 3037 3039 3042 3043 3046 3050 3053 3056 3061 3063 3066 3070 3074
3053 3051 3049 3047 3046 3044 3041 3039 3037 3035 3033 3032 3031 3030 3030 3030 3028 3025 3023 3022 3020 3018 3016 3015 3013 3011 3009 3005 3003 3003 3001 2999 2998 2998 2998 2998 2999 2999 2999 3000 3002 3002 3000 3000 3001 3001 3000 2999 2998 2999 3000 2999 3001 3003 3004 3006 3010 3012 3011 3013 3015 3014 3018 3023 3023 3021 3021 3023 3026 3031 3034 3030 3026 3030 3033 3034 3035 3038 3041 3044 3047 3050 3053 3057 3061 3064 3067 3070
3052 3050 3048 3046 3045 3043 3040 3038 3036 3035 3033 3032 3031 3030 3031 3030 3027 3024 3023 3022 3020 3017 3015 3013 3010 3008 3006 3003 3002 3001 2999 2996 2996 2997 2996 2996 2997 2996 2995 2997 2999 3000 3000 3000 3000 3000 2999 2997 2995 2995 2997 2997 2998 2999 3002 3005 3008 3009 3009 3012 3012 3011 3014 3018 3017 3016 3019 3023 3026 3028 3028 3026 3025 3027 3029 3032 3033 3035 3038 3040 3044 3047 3050 3055 3059 3062 3065 3067
3051 3049 3047 3045 3044 3042 3040 3038 3036 3035 3033 3032 3032 3031 3031 3029 3026 3024 3023 3021 3019 3016 3013 3012 3009 3005 3003 3001 3000 2999 2998 2996 2996 2996 2994 2994 2994 2993 2993 2994 2996 2998 3000 2999 2999 2998 2997 2995 2993 2994 2996 2997 2997 2998 3002 3006 3007 3008 3009 3010 3010 3011 3014 3016 3015 3017 3021 3024 3025 3025 3024 3024 3026 3027 3028 3030 3032 3033 3034 3037 3042 3045 3047 3052 3055 3059 3063 3065
3050 3048 3046 3044 3043 3041 3039 3038 3036 3035 3034 3033 3032 3031 3030 3028 3026 3025 3022 3020 3018 3015 3011 3009 3008 3005 3002 3000 2999 2998 2997 2996 2996 2995 2993 2992 2991 2991 2992 2992 2994 2996 2997 2997 2998 2997 2995 2994 2993 2995 2996 2996 2997 2997 2999 3003 3005 3007 3007 3006 3009 3012 3015 3016 3017 3019 3022 3024 3023 3022 3021 3023 3025 3026 3027 3028 3030 3032 3033 3035 3040 3043 3044 3048 3052 3056 3060 3062
3049 3047 3045 3044 3042 3041 3040 3039 3037 3035 3034 3033 3032 3031 3029 3028 3026 3024 3022 3020 3018 3015 3011 3008 3006 3005 3002 3000 2998 2997 2996 2995 2994 2994 2992 2991 2990 2989 2990 2991 2992 2994 2994 2996 2996 2995 2994 2993 2993 2994 2995 2996 2997 2999 3000 3001 3003 3006 3005 3006 3010 3013 3013 3015 3017 3018 3020 3021 3019 3017 3019 3020 3021 3022 3024 3027 3028 3030 3032 3035 3039 3041 3042 3045 3050 3054 3057 3061
3049 3047 3045 3044 3043 3042 3041 3040 3038 3036 3035 3033 3031 3029 3027 3026 3025 3023 3022 3019 3016 3014 3012 3009 3006 3003 3001 3000 2997 2996 2996 2995 2993 2993 2992 2991 2989 2987 2988 2990 2991 2992 2994 2995 2995 2994 2995 2994 2992 2993 2995 2996 2998 3001 3002 2999 3000 3004 3006 3007 3008 3008 3008 3012 3014 3015 3018 3018 3015 3015 3017 3017 3017 3017 3020 3025 3027 3028 3032 3035 3037 3040 3041 3044 3048 3052 3055 3059
3048 3046 3045 3045 3043 3042 3041 3040 3038 3036 3034 3032 3030 3028 3027 3025 3024 3023 3021 3018 3015 3013 3010 3009 3006 3003 3000 2998 2996 2995 2995 2994 2993 2992 2991 2990 2988 2986 2986 2988 2990 2992 2994 2995 2995 2995 2996 2995 2993 2992 2994 2996 2998 2999 3000 2998 2997 3002 3006 3007 3007 3006 3006 3008 3010 3011 3013 3014 3013 3013 3013 3013 3014 3016 3018 3023 3026 3027 3030 3034 3036 3039 3040 3043 3046 3050 3053 3057
3048 3046 3045 3045 3043 3041 3040 3039 3037 3036 3034 3032 3030 3028 3027 3024 3022 3021 3020 3016 3014 3011 3009 3007 3006 3003 3000 2997 2995 2994 2994 2993 2992 2991 2990 2989 2987 2985 2985 2987 2989 2991 2993 2995 2996 2996 2996 2996 2994 2992 2994 2997 2996 2996 2996 2997 2998 3000 3001 3003 3004 3004 3005 3006 3007 3007 3008 3009 3010 3010 3010 3010 3014 3016 3017 3019 3023 3026 3029 3032 3035 3037 3040 3041 3044 3048 3052 3055
3048 3046 3045 3045 3044 3041 3040 3038 3037 3035 3033 3031 3030 3028 3026 3023 3021 3019 3018 3016 3013 3010 3007 3005 3004 3003 3000 2997 2995 2994 2993 2992 2991 2990 2989 2988 2987 2985 2984 2986 2989 2991 2993 2994 2995 2995 2995 2996 2995 2993 2993 2995 2995 2995 2995 2998 3000 3001 3000 3000 3000 3001 3002 3003 3004 3004 3004 3006 3006 3007 3008 3009 3012 3015 3016 3018 3021 3025 3027 3030 3033 3036 3038 3040 3042 3046 3050 3054
3048 3047 3046 3045 3044 3042 3039 3038 3036 3034 3033 3031 3030 3028 3025 3022 3020 3018 3016 3014 3011 3009 3006 3004 3002 3001 2999 2997 2994 2993 2993 2991 2989 2988 2987 2986 2986 2985 2985 2987 2989 2991 2992 2993 2994 2994 2994 2996 2995 2993 2993 2994 2995 2997 2997 2999 3002 3002 3001 3001 3001 3001 3001 3000 3000 3001 3002 3003 3004 3006 3007 3007 3008 3011 3015 3016 3019 3023 3026 3028 3031 3034 3036 3039 3041 3045 3049 3051
3048 3047 3045 3044 3043 3041 3039 3037 3036 3035 3034 3032 3030 3028 3025 3022 3019 3016 3014 3012 3009 3007 3005 3003 3001 3000 2998 2997 2994 2993 2992 2990 2987 2987 2987 2985 2984 2984 2985 2988 2990 2991 2992 2992 2993 2995 2994 2995 2996 2995 2994 2996 2998 2999 3000 3000 3002 3002 3001 3000 3001 3000 3000 3000 3000 3002 3002 3001 3002 3005 3006 3006 3006 3010 3014 3015 3017 3022 3025 3027 3029 3032 3035 3038 3041 3043 3046 3048
3048 3046 3045 3043 3042 3041 3039 3038 3037 3035 3033 3031 3029 3027 3024 3022 3019 3015 3013 3011 3009 3006 3004 3001 3000 2999 2997 2996 2994 2992 2991 2990 2987 2986 2987 2986 2983 2982 2985 2988 2990 2991 2992 2992 2993 2994 2994 2994 2996 2995 2994 2995 2997 2998 2999 2999 3000 3000 2999 2999 2998 2999 3000 3001 3001 3002 3002 2999 3000 3003 3005 3006 3007 3010 3012 3014 3017 3020 3022 3025 3028 3030 3033 3037 3039 3042 3044 3045
3048 3047 3046 3044 3042 3041 3039 3038 3036 3034 3032 3030 3028 3025 3023 3021 3019 3016 3012 3010 3008 3005 3003 3000 2999 2998 2996 2995 2993 2991 2990 2990 2988 2987 2987 2986 2984 2984 2986 2989 2990 2991 2992 2992 2992 2993 2994 2994 2995 2995 2993 2993 2993 2994 2995 2997 2998 2999 2999 2998 2997 2997 3000 3001 3000 3001 3000 2998 2999 3001 3002 3005 3008 3010 3012 3014 3017 3019 3020 3023 3027 3029 3032 3035 3037 3040 3042 3044
3047 3047 3046 3045 3042 3040 3040 3039 3037 3034 3032 3030 3026 3024 3022 3019 3017 3016 3013 3009 3006 3004 3002 2999 2998 2997 2996 2994 2993 2991 2988 2988 2988 2987 2987 2986 2984 2985 2987 2988 2989 2991 2992 2993 2993 2994 2994 2994 2994 2993 2991 2990 2989 2990 2993 2995 2997 2997 2997 2997 2996 2997 3000 3000 3000 3000 3000 2998 2999 3000 3001 3005 3009 3011 3013 3015 3017 3018 3019 3023 3026 3028 3031 3033 3036 3038 3040 3043
3048 3047 3045 3043 3042 3041 3040 3039 3037 3034 3032 3030 3026 3023 3021 3019 3017 3015 3012 3009 3006 3003 3001 2999 2998 2996 2995 2993 2992 2990 2988 2987 2987 2987 2987 2986 2985 2985 2987 2988 2989 2990 2992 2993 2993 2994 2993 2993 2993 2992 2990 2990 2991 2992 2994 2994 2995 2995 2996 2996 2996 2996 2999 3000 3000 3001 3000 3000 3001 3002 3003 3008 3011 3012 3014 3016 3017 3018 3020 3022 3025 3027 3029 3031 3033 3036 3038 3041
3049 3047 3045 3043 3041 3040 3038 3037 3036 3033 3030 3029 3027 3024 3022 3019 3017 3014 3010 3008 3006 3004 3001 2998 2997 2996 2995 2993 2992 2990 2989 2988 2987 2987 2987 2986 2985 2985 2986 2987 2988 2989 2990 2992 2993 2993 2992 2991 2992 2991 2990 2990 2992 2994 2994 2994 2995 2995 2995 2996 2997 2997 2998 3000 3001 3002 3001 3001 3002 3004 3005 3009 3012 3013 3013 3014 3016 3018 3020 3022 3022 3024 3027 3029 3031 3034 3037 3040
3048 3047 3045 3043 3041 3039 3037 3035 3033 3030 3029 3029 3027 3025 3022 3019 3017 3014 3011 3007 3004 3004 3002 2998 2996 2996 2994 2993 2992 2990 2989 2988 2988 2987 2987 2986 2986 2986 2986 2987 2988 2989 2990 2992 2992 2991 2992 2991 2990 2991 2991 2990 2990 2991 2994 2995 2995 2995 2996 2997 2998 2998 2999 3000 3001 3002 3002 3002 3004 3006 3008 3010 3012 3012 3012 3012 3014 3016 3019 3021 3022 3023 3026 3028 3030 3033 3036 3039
3048 3046 3044 3043 3041 3039 3036 3034 3032 3030 3030 3030 3027 3025 3023 3020 3016 3013 3010 3007 3004 3002 3000 2998 2995 2994 2993 2992 2991 2989 2988 2988 2987 2987 2986 2986 2986 2987 2987 2987 2987 2989 2990 2992 2991 2991 2991 2991 2989 2990 2991 2990 2989 2990 2992 2994 2994 2995 2996 2997 2998 2999 2999 3000 3001 3003 3003 3004 3007 3009 3010 3012 3013 3012 3012 3013 3013 3015 3018 3020 3021 3023 3025 3027 3030 3032 3035 3037
3047 3045 3043 3041 3040 3038 3036 3034 3033 3032 3032 3030 3027 3024 3021 3019 3016 3012 3008 3008 3006 3002 2999 2996 2994 2992 2991 2990 2988 2987 2985 2985 2985 2986 2986 2986 2986 2987 2988 2987 2987 2988 2989 2992 2991 2991 2991 2991 2990 2991 2991 2989 2988 2989 2991 2992 2994 2995 2995 2996 2998 2999 2999 2999 3001 3004 3005 3007 3009 3010 3011 3013 3013 3012 3012 3012 3013 3016 3018 3018 3020 3022 3024 3026 3029 3031 3033 3035
3047 3045 3043 3040 3038 3036 3034 3033 3033 3033 3032 3030 3027 3024 3021 3018 3015 3012 3008 3005 3005 3004 3000 2997 2994 2991 2990 2989 2988 2986 2984 2983 2983 2984 2985 2986 2987 2988 2989 2989 2989 2989 2990 2990 2990 2991 2992 2991 2991 2991 2989 2987 2987 2987 2988 2991 2993 2992 2992 2995 2997 2999 3000 3000 3002 3005 3007 3008 3010 3010 3011 3013 3013 3012 3012 3012 3012 3014 3016 3017 3018 3020 3023 3025 3027 3029 3032 3033